Date String (YYYY-MM-DD hh:mm:ss) UTC,Instrument flags,absolute air pressure of the measurement (hPa),sample flow rate (lpm),inlet stack bypass flow (lpm),air temperature of the measurement (°C),ambient temperature measured by the external sensor (°C),aerosol sample conditioner tube jacket temperature (°C),OPC LED temperature (°C),internal box temperature (°C),relative humidity of the measurement (%),span deviation,mass concentration of particles derived from Lorenz-Mie calculation of OPC scattering (μg/m³),mass concentration of particles derived from Lorenz-Mie calculation of OPC scattering (μg/m³),mass concentration of particles derived from Lorenz-Mie calculation of OPC scattering (μg/m³)
DateTimeUTC,F1_M11,P_M11,Q1_M11,Q2_M11,T1_M11,T2_M11,T3_M11,T4_M11,T5_M11,U1_M11,ZSPAN_M11,X0_M11,X2_M11,X1_M11
2024-03-11 23:00:00,SystemResetWarning,0823.9,5.01,000.00,023.2,022.5,000.0,031.6,025.0,08.9,0000.0,0025.48,0005.69,0003.23
2024-03-11 23:01:00,SystemResetWarning,0823.9,5.00,000.00,023.2,022.5,000.0,031.6,025.0,09.0,0000.0,0025.89,0005.70,0003.22
2024-03-11 23:02:00,SystemResetWarning,0823.9,5.00,000.00,023.2,022.5,000.0,031.6,025.0,09.0,0000.0,0025.66,0005.75,0003.22
2024-03-11 23:03:00,SystemResetWarning,0823.9,5.01,000.00,023.2,022.5,000.0,031.6,025.0,08.8,0000.0,0025.59,0005.77,0003.22
2024-03-11 23:04:00,SystemResetWarning,0824.0,5.00,000.00,023.2,022.5,000.0,031.6,025.0,08.8,0000.0,0024.94,0005.75,0003.21
2024-03-11 23:05:00,SystemResetWarning,0824.0,5.00,000.00,023.2,022.5,000.0,031.6,025.0,08.6,0000.0,0025.49,0005.70,0003.20
2024-03-11 23:06:00,SystemResetWarning,0823.9,5.01,000.00,023.2,022.5,000.0,031.6,025.0,08.7,0000.0,0025.99,0005.66,0003.19
2024-03-11 23:07:00,SystemResetWarning,0823.9,5.00,000.00,023.2,022.5,000.0,031.6,025.0,08.6,0000.0,0025.75,0005.58,0003.18
2024-03-11 23:08:00,SystemResetWarning,0823.9,4.99,000.00,023.3,022.5,000.0,031.6,025.0,08.8,0000.0,0023.94,0005.49,0003.18
2024-03-11 23:09:00,SystemResetWarning,0823.8,4.99,000.00,023.3,022.5,000.0,031.6,025.0,08.8,0000.0,0022.75,0005.46,0003.17
2024-03-11 23:10:00,SystemResetWarning,0823.8,5.00,000.00,023.3,022.5,000.0,031.6,025.0,09.1,0000.0,0022.72,0005.44,0003.16
2024-03-11 23:11:00,SystemResetWarning,0823.8,5.00,000.00,023.3,022.5,000.0,031.7,025.0,09.1,0000.0,0023.57,0005.50,0003.18
2024-03-11 23:12:00,SystemResetWarning,0823.8,4.99,000.00,023.3,022.5,000.0,031.7,025.0,09.1,0000.0,0023.01,0005.45,0003.18
2024-03-11 23:13:00,SystemResetWarning,0823.8,5.00,000.00,023.3,022.6,000.0,031.7,025.0,09.2,0000.0,0022.59,0005.36,0003.17
2024-03-11 23:14:00,SystemResetWarning,0823.9,5.00,000.00,023.3,022.6,000.0,031.7,025.0,09.4,0000.0,0021.46,0005.35,0003.16
2024-03-11 23:15:00,SystemResetWarning,0823.9,5.00,000.00,023.3,022.6,000.0,031.7,025.0,09.2,0000.0,0021.38,0005.30,0003.16
2024-03-11 23:16:00,SystemResetWarning,0823.9,5.00,000.00,023.3,022.6,000.0,031.7,025.1,08.8,0000.0,0021.06,0005.29,0003.16
2024-03-11 23:17:00,SystemResetWarning,0824.0,5.01,000.00,023.3,022.6,000.0,031.7,025.1,08.5,0000.0,0021.02,0005.22,0003.15
2024-03-11 23:18:00,SystemResetWarning,0823.9,5.00,000.00,023.3,022.6,000.0,031.7,025.1,08.5,0000.0,0021.77,0005.23,0003.15
2024-03-11 23:19:00,SystemResetWarning,0824.0,5.00,000.00,023.3,022.6,000.0,031.7,025.1,08.3,0000.0,0022.63,0005.29,0003.15
2024-03-11 23:20:00,SystemResetWarning,0823.9,5.00,000.00,023.3,022.6,000.0,031.7,025.1,08.3,0000.0,0023.80,0005.36,0003.14
2024-03-11 23:21:00,SystemResetWarning,0823.9,5.00,000.00,023.3,022.6,000.0,031.7,025.1,08.4,0000.0,0022.79,0005.30,0003.13
2024-03-11 23:22:00,SystemResetWarning,0823.9,4.99,000.00,023.3,022.7,000.0,031.7,025.1,08.5,0000.0,0022.90,0005.30,0003.12
2024-03-11 23:23:00,SystemResetWarning,0823.8,4.99,000.00,023.3,022.7,000.0,031.7,025.1,08.3,0000.0,0022.28,0005.29,0003.11
2024-03-11 23:24:00,SystemResetWarning,0823.8,5.01,000.00,023.4,022.7,000.0,031.7,025.1,08.3,0000.0,0022.14,0005.36,0003.11
2024-03-11 23:25:00,SystemResetWarning,0823.8,5.01,000.00,023.4,022.7,000.0,031.8,025.1,08.3,0000.0,0023.70,0005.39,0003.11
2024-03-11 23:26:00,SystemResetWarning,0823.8,5.01,000.00,023.4,022.7,000.0,031.8,025.1,08.0,0000.0,0023.30,0005.42,0003.11
2024-03-11 23:27:00,SystemResetWarning,0823.8,5.00,000.00,023.4,022.7,000.0,031.8,025.1,08.1,0000.0,0023.65,0005.41,0003.09
2024-03-11 23:28:00,SystemResetWarning,0823.8,5.01,000.00,023.4,022.7,000.0,031.8,025.1,08.0,0000.0,0024.76,0005.45,0003.07
2024-03-11 23:29:00,SystemResetWarning,0823.9,5.00,000.00,023.4,022.7,000.0,031.8,025.2,07.9,0000.0,0024.77,0005.48,0003.08
2024-03-11 23:30:00,SystemResetWarning,0823.9,4.99,000.00,023.4,022.7,000.0,031.8,025.1,07.9,0000.0,0024.62,0005.50,0003.10
2024-03-11 23:31:00,SystemResetWarning,0823.9,4.99,000.00,023.4,022.7,000.0,031.8,025.2,07.9,0000.0,0024.16,0005.46,0003.10
2024-03-11 23:32:00,SystemResetWarning,0824.0,5.00,000.00,023.4,022.7,000.0,031.8,025.2,07.8,0000.0,0023.55,0005.50,0003.10
2024-03-11 23:33:00,SystemResetWarning,0824.0,5.01,000.00,023.4,022.7,000.0,031.8,025.2,07.8,0000.0,0024.63,0005.56,0003.11
2024-03-11 23:34:00,SystemResetWarning,0824.0,5.00,000.00,023.4,022.7,000.0,031.8,025.2,07.9,0000.0,0024.95,0005.49,0003.10
2024-03-11 23:35:00,SystemResetWarning,0823.9,5.01,000.00,023.4,022.8,000.0,031.8,025.2,07.9,0000.0,0025.09,0005.45,0003.10
2024-03-11 23:36:00,SystemResetWarning,0824.0,5.00,000.00,023.4,022.8,000.0,031.8,025.2,08.0,0000.0,0023.38,0005.44,0003.10
2024-03-11 23:37:00,SystemResetWarning,0824.0,4.99,000.00,023.4,022.8,000.0,031.8,025.2,08.0,0000.0,0023.54,0005.48,0003.10
2024-03-11 23:38:00,SystemResetWarning,0824.0,4.99,000.00,023.5,022.8,000.0,031.8,025.2,08.2,0000.0,0022.89,0005.52,0003.11
2024-03-11 23:39:00,SystemResetWarning,0823.9,5.00,000.00,023.5,022.8,000.0,031.9,025.3,08.1,0000.0,0021.83,0005.50,0003.12
2024-03-11 23:40:00,SystemResetWarning,0824.0,5.00,000.00,023.5,022.8,000.0,031.9,025.3,08.0,0000.0,0020.73,0005.52,0003.13
2024-03-11 23:41:00,SystemResetWarning,0823.9,5.01,000.00,023.5,022.8,000.0,031.9,025.3,08.2,0000.0,0020.38,0005.48,0003.12
2024-03-11 23:42:00,SystemResetWarning,0823.9,5.00,000.00,023.5,022.8,000.0,031.9,025.3,08.3,0000.0,0020.46,0005.46,0003.12
2024-03-11 23:43:00,SystemResetWarning,0824.0,5.00,000.00,023.5,022.8,000.0,031.9,025.3,08.2,0000.0,0020.67,0005.43,0003.13
2024-03-11 23:44:00,SystemResetWarning,0823.9,5.00,000.00,023.5,022.9,000.0,031.9,025.3,08.0,0000.0,0019.89,0005.37,0003.13
2024-03-11 23:45:00,SystemResetWarning,0823.9,5.00,000.00,023.5,022.9,000.0,031.9,025.3,07.9,0000.0,0018.98,0005.38,0003.13
2024-03-11 23:46:00,SystemResetWarning,0824.0,5.00,000.00,023.5,022.9,000.0,031.9,025.3,08.1,0000.0,0018.83,0005.34,0003.13
2024-03-11 23:47:00,SystemResetWarning,0823.9,5.01,000.00,023.5,022.9,000.0,031.9,025.3,08.2,0000.0,0018.92,0005.31,0003.14
2024-03-11 23:48:00,SystemResetWarning,0823.9,5.01,000.00,023.5,022.9,000.0,031.9,025.3,08.1,0000.0,0018.59,0005.27,0003.15
2024-03-11 23:49:00,SystemResetWarning,0823.9,5.00,000.00,023.5,022.9,000.0,031.9,025.3,08.1,0000.0,0019.21,0005.26,0003.16
2024-03-11 23:50:00,SystemResetWarning,0823.9,5.00,000.00,023.5,022.9,000.0,031.9,025.3,08.1,0000.0,0019.15,0005.27,0003.16
2024-03-11 23:51:00,SystemResetWarning,0823.9,5.00,000.00,023.6,022.9,000.0,032.0,025.4,08.1,0000.0,0018.44,0005.25,0003.19
2024-03-11 23:52:00,SystemResetWarning,0823.9,5.00,000.00,023.6,022.9,000.0,032.0,025.4,08.2,0000.0,0017.70,0005.23,0003.20
2024-03-11 23:53:00,SystemResetWarning,0823.9,5.00,000.00,023.6,022.9,000.0,032.0,025.4,08.3,0000.0,0017.22,0005.25,0003.20
2024-03-11 23:54:00,SystemResetWarning,0823.9,5.00,000.00,023.6,022.9,000.0,032.0,025.4,08.3,0000.0,0017.23,0005.24,0003.20
2024-03-11 23:55:00,SystemResetWarning,0823.9,5.01,000.00,023.6,022.9,000.0,032.0,025.4,08.2,0000.0,0016.56,0005.20,0003.20
2024-03-11 23:56:00,SystemResetWarning,0823.9,5.01,000.00,023.6,022.9,000.0,032.0,025.4,08.1,0000.0,0016.46,0005.20,0003.21
2024-03-11 23:57:00,SystemResetWarning,0823.8,5.00,000.00,023.6,022.9,000.0,032.0,025.4,08.1,0000.0,0016.82,0005.26,0003.20
2024-03-11 23:58:00,SystemResetWarning,0823.8,5.00,000.00,023.6,022.9,000.0,032.0,025.4,08.1,0000.0,0016.88,0005.28,0003.18
2024-03-11 23:59:00,SystemResetWarning,0823.8,4.99,000.00,023.6,022.9,000.0,032.0,025.4,08.2,0000.0,0016.53,0005.29,0003.17
